Location: Roah Hook
(42.4840°N, 73.7893°W)
Time: 08:53:35
(UTC+00:00)

ARIANE 6 FM1 Upper Stage - Pass Details

Date: 21 October 2024
Orbit: 558 x 596 km, 62.0° (Epoch: 11 November)

Event Time Altitude Azimuth Distance (km) Brightness Sun altitude
Rises 23:45:39 0° 321° (NW) 2,831 6.9 -19.6°
Reaches altitude 10° 23:47:54 10° 320° (NW) 1,931 6.0 -20.1°
Maximum altitude 23:52:16 79° 234° (SW) 612 2.8 -20.9°
Enters shadow 23:53:46 40° 154° (SSE) 878 3.4 -21.1°
